This is the latest recevied weather packets stored in our database for station/object WX5HOT. If no packets are shown the sender has not sent any weather packets the latest 1 day(s).
| Time | Temp. | Humidity | Pressure | Rain* | Wind** | Luminosity | Snow |
|---|---|---|---|---|---|---|---|
| 1777981804 | 16.11° C | 98% | 1056.4 hPa | 0 mm | 1.79 m/s, 174° | 3 W/m² | - |
| 1777981501 | 16.11° C | 98% | 1056.3 hPa | 0 mm | 2.24 m/s, 167° | 2 W/m² | - |
| 1777981197 | 16.11° C | 98% | 1056.3 hPa | 0 mm | 1.79 m/s, 189° | 2 W/m² | - |
| 1777980894 | 16.11° C | 98% | 1056.3 hPa | 0 mm | 2.68 m/s, 172° | 1 W/m² | - |
| 1777980590 | 16.11° C | 98% | 1056.4 hPa | 0 mm | 1.79 m/s, 202° | 0 W/m² | - |
| 1777980287 | 15.56° C | 98% | 1056 hPa | 0 mm | 3.13 m/s, 177° | 0 W/m² | - |
| 1777979984 | 15.56° C | 97% | 1056.1 hPa | 0 mm | 2.24 m/s, 184° | 0 W/m² | - |
| 1777979678 | 15.56° C | 97% | 1056.1 hPa | 0 mm | 2.24 m/s, 179° | 0 W/m² | - |
| 1777979375 | 15.56° C | 97% | 1056.1 hPa | 0 mm | 2.68 m/s, 175° | 0 W/m² | - |
| 1777979072 | 15.56° C | 97% | 1056 hPa | 0 mm | 2.68 m/s, 177° | 0 W/m² | - |
| 1777978768 | 15.56° C | 97% | 1056 hPa | 0 mm | 2.68 m/s, 165° | 0 W/m² | - |
| 1777978465 | 15.56° C | 96% | 1056.3 hPa | 0 mm | 2.68 m/s, 179° | 0 W/m² | - |
| 1777978161 | 15.56° C | 96% | 1055.9 hPa | 0 mm | 2.68 m/s, 160° | 0 W/m² | - |
| 1777977858 | 16.11° C | 95% | 1056.1 hPa | 0 mm | 3.13 m/s, 167° | 0 W/m² | - |
| 1777977554 | 16.11° C | 95% | 1056 hPa | 0 mm | 2.68 m/s, 154° | 0 W/m² | - |
| 1777977253 | 16.11° C | 94% | 1055.9 hPa | 0 mm | 2.24 m/s, 188° | 0 W/m² | - |
| 1777976949 | 16.11° C | 94% | 1055.9 hPa | 0 mm | 3.58 m/s, 174° | 0 W/m² | - |
| 1777976646 | 16.11° C | 93% | 1055.9 hPa | 0 mm | 2.68 m/s, 171° | 0 W/m² | - |
| 1777976343 | 16.11° C | 93% | 1055.8 hPa | 0 mm | 3.58 m/s, 197° | 0 W/m² | - |
| 1777976037 | 16.11° C | 93% | 1055.8 hPa | 0 mm | 3.13 m/s, 191° | 0 W/m² | - |
| 1777975733 | 16.11° C | 93% | 1055.8 hPa | 0 mm | 3.13 m/s, 174° | 0 W/m² | - |
| 1777975430 | 16.11° C | 93% | 1056 hPa | 0 mm | 3.13 m/s, 162° | 0 W/m² | - |
| 1777975126 | 16.11° C | 92% | 1055.9 hPa | 0 mm | 4.02 m/s, 192° | 0 W/m² | - |
| 1777974824 | 16.11° C | 92% | 1056 hPa | 0 mm | 3.13 m/s, 197° | 0 W/m² | - |
| 1777974519 | 16.11° C | 92% | 1056.1 hPa | 0 mm | 4.02 m/s, 185° | 0 W/m² | - |
* Rain latest hour (hover to see other rain measurements)
** Current wind speed in m/s (hover to see current wind gust speed)